Regional Weather Roundup
Issued by NWS

Home | Current Version | Previous Version | Text Only | Print | Product List | Glossary On
Versions: 1 2 3 4 5 6 7 8 9 10 11 12 13 14 15 16 17 18 19 20 21 22 23 24 25 26 27 28 29 30 31 32 33 34 35 36 37 38 39 40 41 42 43 44 45 46 47 48 49 50
000
ASUS46 KSEW 032210
RWRWA

WASHINGTON REGIONAL WEATHER ROUNDUP
NATIONAL WEATHER SERVICE SEATTLE WA
300 PM PDT FRI JUL 03 2015

NOTE:"FAIR" INDICATES FEW OR NO CLOUDS BELOW 12,000 FEET WITH NO
SIGNIFICANT WEATHER AND/OR OBSTRUCTIONS TO VISIBILITY.

WAZ505-507>509-032300-
SEATTLE, TACOMA, EVERETT, AND VICINITY

CITY           SKY/WX    TMP DP  RH WIND       PRES   REMARKS
EVERETT        SUNNY     84  54  35 NW8       29.93F
BOEING FIELD   SUNNY     91  49  23 VRB3      29.89F
RENTON         SUNNY     89  55  31 NW7       29.88F
SEATAC AIRPORT SUNNY     89  52  28 W8        29.92F
JBLM-MCCHORD   SUNNY     90  54  28 N8        29.90F
PUYALLUP       FAIR      91  46  21 CALM      29.92F
BREMERTON      SUNNY     91  57  31 N7        29.93F HX  90
JBLM-FT LEWIS  SUNNY     91  53  27 NW8       29.90F
TACOMA NARROWS SUNNY     86  54  33 NE3       29.91F
$$

WAZ001-503-506-510-514-515-032300-
NORTH INTERIOR

CITY           SKY/WX    TMP DP  RH WIND       PRES   REMARKS
BELLINGHAM     SUNNY     79  56  45 VRB3      29.91F
FRIDAY HARBOR  SUNNY     83  52  34 N12       29.93F
EASTSOUND      SUNNY     72  54  53 N6        29.92F
PORT ANGELES   SUNNY     81  53  37 E8        29.93F
PORT TOWNSEND  FAIR      84  55  37 VRB6      29.91F
NAS WHIDBEY    SUNNY     74  56  53 W6        29.96F
ARLINGTON      SUNNY     88  57  35 NW14      29.90F
BURLINGTON     SUNNY     81  55  41 NW12G18   29.91F
$$

WAZ020-022-039-040-504-511-512-032300-
SOUTHWEST INTERIOR

CITY           SKY/WX    TMP DP  RH WIND       PRES   REMARKS
SHELTON        SUNNY     91  54  28 W8        29.89F
OLYMPIA        SUNNY     90  49  24 VRB6      29.90F
CHEHALIS       FAIR      93  57  29 VRB6G12   29.90F HX  92
KELSO          SUNNY     84  61  45 W12       29.94F
VANCOUVER      SUNNY     91  57  31 VRB7      29.87F
SCAPPOOSE, OR  SUNNY     91  62  37 E7        29.87F HX  91
PORTLAND, OR   MOSUNNY   92  58  31 NW9       29.87F HX  91
$$

WAZ021-516-517-032300-
WASHINGTON COAST

CITY           SKY/WX    TMP DP  RH WIND       PRES   REMARKS
FORKS          CLOUDY    71  55  56 VRB5      29.95F
HOQUIAM        SUNNY     67  54  63 W14       29.97F HAZE
ASTORIA, OR    SUNNY     70  55  59 W12       29.99S
$$

WAZ019-023-024-040-518-519-032300-
CASCADE MOUNTAINS AND COLUMBIA GORGE

CITY           SKY/WX    TMP DP  RH WIND       PRES   REMARKS
TROUTDALE, OR  SUNNY     92  56  29 SW8       29.86F HX  90
THE DALLES, OR SUNNY    100  54  21 NW15      29.75F HX  98
$$

WAZ026-027-041>044-520-521-032300-
EAST SLOPES

CITY           SKY/WX    TMP DP  RH WIND       PRES   REMARKS
OMAK           SUNNY    102  36  10 VRB3      29.76F HX  96
WENATCHEE      SUNNY    102  31   8 VRB3      29.76F HX  95
ELLENSBURG     SUNNY    102  33   9 NW20G25   29.82F HX  96
YAKIMA         SUNNY    104  46  14 E6        29.78F HX 100
$$

WAZ028-034-035-032300-
COLUMBIA BASIN

CITY           SKY/WX    TMP DP  RH WIND       PRES   REMARKS
EPHRATA        SUNNY    103  40  11 SW9       29.78F HX  98
MOSES LAKE     SUNNY    104  42  12 SW13      29.79F HX  99
PASCO          SUNNY    103  48  15 CALM      29.74F HX  99
HERMISTON, OR  SUNNY    102  44  14 VRB6      29.75F HX  98
$$

WAZ036>038-032300-
NORTHEAST WASHINGTON

CITY           SKY/WX    TMP DP  RH WIND       PRES   REMARKS
SPOKANE GEIGER MOSUNNY   98  36  11 SW17G28   29.86F HX  93
SPOKANE FELTS  SUNNY    100  39  12 W12G21    29.83F HX  95
FAIRCHILD AFB  SUNNY     97  39  13 SW8G21    29.86F HX  93
COEURDALENE,ID SUNNY     99  46  16 W10       29.84F HX  95
DEER PARK      SUNNY     98  44  15 SW9G20    29.84F HX  94
$$

WAZ029>033-032300-
SOUTHEAST WASHINGTON

CITY           SKY/WX    TMP DP  RH WIND       PRES   REMARKS
PULLMAN        SUNNY     95  42  16 W10       29.91F HX  91
LEWISTON, ID   SUNNY    102  41  12 NW3       29.79F HX  97
WALLA WALLA    SUNNY    102  37  10 CALM      29.79F HX  96
PENDLETON, OR  SUNNY    102  35  10 W10G16    29.81F HX  96
$$



USA.gov is the U.S. government's official web portal to all federal, state and local government web resources and services.